Location: Izdebno
(52.6670°N, 16.2170°E)
Time: 05:26:09
(UTC+02:00)

A-11 Canister half - Pass Details

Date: 16 February 2023
Orbit: 1526 x 1682 km, 47.3° (Epoch: 25 March)

Event Time Altitude Azimuth Distance (km) Brightness Sun altitude
Rises 01:12:02 0° 199° (SSW) 4,719 - -47.9°
Reaches altitude 10° 01:15:47 10° 187° (S) 3,720 - -47.7°
Maximum altitude 01:22:55 25° 137° (SE) 2,691 - -47.2°
Exits shadow 01:27:29 17° 99° (E) 3,150 10.7 -46.9°
Drops below altitude 10° 01:29:59 10° 86° (E) 3,696 11.2 -46.7°
Sets 01:33:40 0° 75° (ENE) 4,684 12.0 -46.4°
